Location: Helion Bumpstead
(52.0500°N, 0.4000°E)
Time: 07:45:35
(UTC+00:00)

SJ 16-02 - Pass Details

Date: 15 November 2025
Orbit: 585 x 594 km, 75.0° (Epoch: 14 December)

Event Time Altitude Azimuth Distance (km) Brightness Sun altitude
Exits shadow 03:52:38 27° 103° (ESE) 1,140 3.2 -31.4°
Drops below altitude 10° 03:55:02 10° 127° (SE) 1,915 4.3 -31.0°
Sets 03:57:22 0° 136° (SE) 2,810 5.2 -30.7°
